THOR ABLESTAR DEB, 225

Orbit data source: Space-Track

THOR ABLESTAR DEB, 225 is space debris in LEO originally from a launch on Thu, 29 Jun 1961 UTC launched from the Air Force Eastern Test Range (AFETR). Debris objects in space refer to the collection of defunct objects orbiting the Earth. Examples of debris include non-operational satellites, rocket bodies, and fragments generated from explosions, collisions, or faulty payload assembly.

Loading next visibility...
THOR ABLESTAR DEB details
Identifier
225, 1961-015BM
Orbit
LEO
Last TLE update22 hours ago
Origin
Flag of USUSAF SSD (US)
ManufacturerUnknown
MissionSpacecraft
Bus & MotorUnknown
MassUnknown
Launch date (UTC)
1961-06-29 (64 years ago)
Launch vehicleUnknown
Launch site
Air Force Eastern Test Range (AFETR)
Object type
Payload
Rocket body
Debris
Shape & HBRUnknown
Radar Cross SectionSmall (<0.1 m²)

Expand to show TLE details & history

TLE from 22 hours ago
0 THOR ABLESTAR DEB
1 00225U 61015BM  25017.76225017  .00004107  00000-0  13371-2 0  9996
2 00225  66.7979 167.1838 0107958 246.4798 112.4932 14.36414510283643
Epoch: 2025-01-17T18:17Z
Definitive object data (Epoch: 2025-01-17T18:17:38.414Z)
Latitude-0.00005°
Longitude135.35248°
Altitude802.725 km
Speed7.437 km/s
True Right ascension11h 08m 44s
True Declination0° 00' 00"
Sunlit
Object was in full shadow at TLE epoch
Visualization TLE readout
Latitude16.08809°
Longitude-54.17705°
Altitude762.01 km
Speed7.48 km/s
Apparent Right ascension01h 14m 06s
Apparent Declination-16° 24' 01"
Sunlit
Object is in daylight
Visualization observer readout
Local Sidereal Time17:39:50
Azimuth88.077° E
Elevation-28.379°
Doppler factor1
Orbital elements
Apogee altitude845.884 km
Perigee altitude691.572 km
Semi-major axis7,146.865 km
Eccentricity0.0107958
Inclination66.7979°
RAAN167.1838°
Arg. of periapsis246.4798°
True anomaly113.63025°
Mean anomaly112.4932°
Eccentric anomaly113.06232°
Mean motion3.59228 °/min
BSTAR0.0013371
Orbital period100.21 mins
Loading maneuver chart data...

THOR ABLESTAR DEB Visibility forecast

Observer location: undefined°, undefined

Span
Click to sort rows by Start time (UTC) header in descending order
Start Az.
Max El. time (UTC)
Max El. Az.
Max El.
End time (UTC)
End Az.
9 mins2025-01-18 19:53:56.588Z344.546° N2025-01-18 19:58:56.588Z57.857° ENE34.082°2025-01-18 20:02:56.588Z121.13° SE
6 mins2025-01-18 21:38:56.588Z292.508° NW2025-01-18 21:41:56.588Z245.33° WSW23.769°2025-01-18 21:44:56.588Z204.084° SW
8 mins2025-01-19 10:31:56.588Z169.726° S2025-01-19 10:35:56.588Z98.791° ESE32.271°2025-01-19 10:39:56.588Z47.044° ENE
8 mins2025-01-19 12:14:56.588Z255.007° W2025-01-19 12:18:56.588Z316.92° NNW27.987°2025-01-19 12:22:56.588Z8° NNE
|